Flag Weather past 2 weeks in St. Paul, Minnesota, U.S.A.

Now
36 °F

Fog.


Feels Like: 28 °F
Forecast: 32 / 41 °F
Wind: 10 mph from Southeast

Location: St. Paul Downtown Holman Field

Current Time: Nov 22, 2014 at 8:29:42 PM

Latest Report: Nov 22, 2014 at 7:53 PM


Visibility: 2 mi

Pressure: 29.62 "Hg

Humidity: 100%

Dew point: 36 °F

Location of St. PaulLocation

Historic Weather in St. Paul — Graph

°F

St. Paul temperature yesterday

Maximum temperature yesterday: 32 °F (at 11:53 PM)
Minimum temperature yesterday: 4 °F (at 2:53 AM)
Average temperature yesterday: 19 °F

Past Weeks' High & Low Weather Summary

 TemperatureHumidityPressure
High47 °F (Nov 7, 8:53 PM)97% (Nov 22, 6:53 PM)30.45 "Hg (Nov 22, 6:53 PM)
Low4 °F (Nov 21, 2:53 AM)36% (Nov 9, 4:53 PM)29.64 "Hg (Nov 10, 1:02 PM)
Average22 °F73%30.07 "Hg
* Reported Nov 7 6:53 PM — Nov 22 6:53 PM, St. Paul, Weather by CustomWeather, © 2014

Note: Actual official high and low records may vary slightly from our data, if they occured in-between our weather recording intervals... More about our weather records

Advertising

St. Paul weather history for previous 24 hours

 ConditionsComfort  
Time TempWeatherWind HumidityBarometerVisibility
6:53 PM
Nov 22
36 °FFog.7 mph97%29.65 "Hg4 mi
5:53 PM35 °FFog.7 mph96%29.65 "Hg6 mi
4:53 PM35 °FFog.8 mph96%29.68 "Hg6 mi
3:53 PM35 °FFog.10 mph96%29.70 "Hg5 mi
2:53 PM35 °FFog.9 mph92%29.71 "Hg5 mi
1:53 PM35 °FFog.10 mph92%29.72 "Hg5 mi
12:53 PM35 °FFog.9 mph92%29.73 "Hg5 mi
11:53 AM35 °FFog.8 mph92%29.75 "Hg3 mi
10:53 AM35 °FFog.9 mph92%29.78 "Hg4 mi
9:53 AM35 °FFog.8 mph92%29.79 "Hg4 mi
8:53 AM35 °FFog.8 mph92%29.80 "Hg4 mi
7:53 AM35 °FFog.9 mph92%29.81 "Hg4 mi
6:53 AM36 °FFog.9 mph89%29.82 "Hg5 mi
5:53 AM36 °FFog.8 mph89%29.82 "Hg5 mi
4:53 AM36 °FFog.8 mph89%29.83 "Hg5 mi
3:53 AM36 °FFog.10 mph89%29.85 "Hg6 mi
2:53 AM35 °FFog.8 mph88%29.87 "Hg6 mi
1:53 AM36 °FOvercast.9 mph82%29.88 "Hg6 mi
12:53 AM34 °FOvercast.10 mph85%29.88 "Hg7 mi
11:53 PM
Nov 21
32 °FOvercast.7 mph85%29.92 "Hg8 mi
10:53 PM30 °FPassing clouds.10 mph82%29.93 "Hg10 mi
9:53 PM30 °FClear.9 mph79%29.95 "Hg10 mi
8:53 PM29 °FClear.8 mph79%29.96 "Hg10 mi
Weather by CustomWeather, © 2014

See weather overviewHow to use our weather pages